Time,TemperatureF,DewpointF,PressureIn,WindDirection,WindDirectionDegrees,WindSpeedMPH,WindSpeedGustMPH,Humidity,HourlyPrecipIn,Conditions,Clouds,dailyrainin,SoftwareType,DateUTC
2013-09-03 00:01:00,74.3,70.8,29.86,SSW,212,0.0,3.0,89,0.00,,---,0.00,VWS V14.01,2013-09-03 04:01:00,
2013-09-03 00:02:00,74.3,70.8,29.86,SSW,205,0.0,1.0,89,0.00,,---,0.00,VWS V14.01,2013-09-03 04:02:00,
2013-09-03 00:03:00,74.3,70.8,29.86,SSW,212,1.0,1.0,89,0.00,,---,0.00,VWS V14.01,2013-09-03 04:03:00,
2013-09-03 00:08:00,74.3,70.8,29.86,SW,218,1.0,2.0,89,0.00,,---,0.00,VWS V14.01,2013-09-03 04:08:00,
2013-09-03 00:13:00,74.2,70.8,29.86,SSW,208,1.0,2.0,89,0.00,,---,0.00,VWS V14.01,2013-09-03 04:13:00,
2013-09-03 00:18:00,74.4,70.9,29.86,SW,235,0.0,2.0,89,0.00,,---,0.00,VWS V14.01,2013-09-03 04:18:00,
2013-09-03 00:23:00,74.7,71.2,29.86,SW,228,1.0,2.0,89,0.00,,---,0.00,VWS V14.01,2013-09-03 04:23:00,
2013-09-03 00:28:00,75.0,71.5,29.86,SW,232,1.0,2.0,89,0.00,,---,0.00,VWS V14.01,2013-09-03 04:28:00,
2013-09-03 00:33:00,75.2,71.7,29.86,WNW,287,2.0,2.0,89,0.00,,---,0.00,VWS V14.01,2013-09-03 04:33:00,
2013-09-03 00:38:00,75.4,71.6,29.86,WSW,253,0.0,2.0,88,0.00,,---,0.00,VWS V14.01,2013-09-03 04:38:00,
2013-09-03 00:43:00,75.3,71.5,29.86,SW,215,1.0,1.0,88,0.00,,---,0.00,VWS V14.01,2013-09-03 04:43:00,
2013-09-03 00:48:00,74.9,71.1,29.86,SSW,207,1.0,2.0,88,0.00,,---,0.00,VWS V14.01,2013-09-03 04:48:00,
2013-09-03 00:53:00,74.6,71.2,29.86,SSW,198,1.0,2.0,89,0.00,,---,0.00,VWS V14.01,2013-09-03 04:53:00,
2013-09-03 00:58:00,74.3,70.8,29.86,South,188,1.0,2.0,89,0.00,,---,0.00,VWS V14.01,2013-09-03 04:58:00,
2013-09-03 01:03:00,74.0,70.9,29.86,SSW,195,2.0,2.0,90,0.00,,---,0.00,VWS V14.01,2013-09-03 05:03:00,
2013-09-03 01:08:00,73.8,70.7,29.86,SSE,153,1.0,2.0,90,0.00,,---,0.00,VWS V14.01,2013-09-03 05:08:00,
2013-09-03 01:13:00,73.7,70.9,29.86,South,186,2.0,2.0,91,0.00,,---,0.00,VWS V14.01,2013-09-03 05:13:00,
2013-09-03 01:18:00,73.7,70.9,29.86,South,174,2.0,2.0,91,0.00,,---,0.00,VWS V14.01,2013-09-03 05:18:00,
2013-09-03 01:23:00,73.5,70.7,29.86,SSE,166,2.0,2.0,91,0.00,,---,0.00,VWS V14.01,2013-09-03 05:23:00,
2013-09-03 01:28:00,73.4,70.9,29.86,SSE,159,2.0,2.0,92,0.00,,---,0.00,VWS V14.01,2013-09-03 05:28:00,
2013-09-03 01:33:00,73.4,70.9,29.86,SSE,158,4.0,4.0,92,0.00,,---,0.00,VWS V14.01,2013-09-03 05:33:00,
2013-09-03 01:38:00,73.5,71.0,29.86,South,169,2.0,5.0,92,0.00,,---,0.00,VWS V14.01,2013-09-03 05:38:00,
2013-09-03 01:43:00,73.4,70.9,29.86,SSE,159,2.0,4.0,92,0.00,,---,0.00,VWS V14.01,2013-09-03 05:43:00,
2013-09-03 01:48:00,73.4,70.9,29.86,South,170,2.0,3.0,92,0.00,,---,0.00,VWS V14.01,2013-09-03 05:48:00,
2013-09-03 01:53:00,73.4,70.9,29.86,South,169,3.0,3.0,92,0.00,,---,0.00,VWS V14.01,2013-09-03 05:53:00,
2013-09-03 01:58:00,73.3,70.8,29.86,South,190,3.0,4.0,92,0.00,,---,0.00,VWS V14.01,2013-09-03 05:58:00,
2013-09-03 02:03:00,73.2,70.7,29.86,SSE,159,0.0,3.0,92,0.00,,---,0.00,VWS V14.01,2013-09-03 06:03:00,
2013-09-03 02:08:00,73.1,71.0,29.86,South,190,1.0,2.0,93,0.00,,---,0.00,VWS V14.01,2013-09-03 06:08:00,
2013-09-03 02:13:00,72.9,70.8,29.86,SSW,194,0.0,2.0,93,0.00,,---,0.00,VWS V14.01,2013-09-03 06:13:00,
2013-09-03 02:18:00,72.8,70.7,29.86,SSW,194,1.0,2.0,93,0.00,,---,0.00,VWS V14.01,2013-09-03 06:18:00,
2013-09-03 02:23:00,72.8,70.7,29.86,South,177,0.0,1.0,93,0.00,,---,0.00,VWS V14.01,2013-09-03 06:23:00,
2013-09-03 02:28:00,72.7,70.9,29.85,SW,214,0.0,1.0,94,0.00,,---,0.00,VWS V14.01,2013-09-03 06:28:00,
2013-09-03 02:33:00,72.7,70.9,29.85,South,187,2.0,2.0,94,0.00,,---,0.00,VWS V14.01,2013-09-03 06:33:00,
2013-09-03 02:38:00,72.7,70.9,29.85,SSW,197,2.0,2.0,94,0.00,,---,0.00,VWS V14.01,2013-09-03 06:38:00,
2013-09-03 02:43:00,72.7,70.9,29.85,SSE,166,2.0,3.0,94,0.00,,---,0.00,VWS V14.01,2013-09-03 06:43:00,
2013-09-03 02:48:00,72.7,70.9,29.85,South,169,4.0,4.0,94,0.00,,---,0.00,VWS V14.01,2013-09-03 06:48:00,
2013-09-03 02:53:00,72.7,71.2,29.85,South,174,2.0,4.0,95,0.00,,---,0.00,VWS V14.01,2013-09-03 06:53:00,
2013-09-03 02:58:00,72.6,71.1,29.85,SW,226,2.0,3.0,95,0.00,,---,0.00,VWS V14.01,2013-09-03 06:58:00,
2013-09-03 03:03:00,72.6,71.1,29.85,SSW,211,2.0,3.0,95,0.00,,---,0.00,VWS V14.01,2013-09-03 07:03:00,
2013-09-03 03:08:00,72.6,71.1,29.85,SW,222,2.0,5.0,95,0.00,,---,0.00,VWS V14.01,2013-09-03 07:08:00,
2013-09-03 03:13:00,72.6,71.1,29.84,SW,232,2.0,6.0,95,0.00,,---,0.00,VWS V14.01,2013-09-03 07:13:00,
2013-09-03 03:19:00,72.5,71.0,29.85,South,170,1.0,5.0,95,0.00,,---,0.00,VWS V14.01,2013-09-03 07:19:00,
2013-09-03 03:24:00,72.4,70.9,29.84,South,184,1.0,4.0,95,0.00,,---,0.00,VWS V14.01,2013-09-03 07:24:00,
2013-09-03 03:29:00,72.4,71.2,29.84,SSE,168,1.0,4.0,96,0.00,,---,0.00,VWS V14.01,2013-09-03 07:29:00,
2013-09-03 03:34:00,72.5,71.3,29.84,SSE,156,2.0,3.0,96,0.00,,---,0.00,VWS V14.01,2013-09-03 07:34:00,
2013-09-03 03:39:00,72.5,71.3,29.84,South,187,0.0,3.0,96,0.00,,---,0.00,VWS V14.01,2013-09-03 07:39:00,
2013-09-03 03:44:00,72.5,71.3,29.84,SSW,200,2.0,2.0,96,0.00,,---,0.00,VWS V14.01,2013-09-03 07:44:00,
2013-09-03 03:49:00,72.5,71.3,29.84,SW,221,4.0,4.0,96,0.00,,---,0.00,VWS V14.01,2013-09-03 07:49:00,
2013-09-03 03:54:00,72.6,71.4,29.84,WSW,245,2.0,3.0,96,0.00,,---,0.00,VWS V14.01,2013-09-03 07:54:00,
2013-09-03 03:59:00,72.5,71.3,29.84,SW,228,1.0,1.0,96,0.00,,---,0.00,VWS V14.01,2013-09-03 07:59:00,
2013-09-03 04:04:00,72.5,71.3,29.83,SSW,203,2.0,2.0,96,0.00,,---,0.00,VWS V14.01,2013-09-03 08:04:00,
2013-09-03 04:09:00,72.4,71.2,29.83,SW,218,4.0,4.0,96,0.00,,---,0.00,VWS V14.01,2013-09-03 08:09:00,
2013-09-03 04:14:00,72.3,71.1,29.83,SSW,212,3.0,5.0,96,0.00,,---,0.00,VWS V14.01,2013-09-03 08:14:00,
2013-09-03 04:19:00,72.2,71.0,29.84,SSW,207,4.0,6.0,96,0.00,,---,0.00,VWS V14.01,2013-09-03 08:19:00,
2013-09-03 04:24:00,72.3,71.1,29.84,WSW,240,5.0,7.0,96,0.00,,---,0.00,VWS V14.01,2013-09-03 08:24:00,
2013-09-03 04:29:00,72.2,71.0,29.84,SSW,210,4.0,6.0,96,0.00,,---,0.00,VWS V14.01,2013-09-03 08:29:00,
2013-09-03 04:34:00,72.2,71.0,29.84,SSW,205,2.0,6.0,96,0.00,,---,0.00,VWS V14.01,2013-09-03 08:34:00,
2013-09-03 04:39:00,72.1,70.9,29.83,SW,225,4.0,4.0,96,0.00,,---,0.00,VWS V14.01,2013-09-03 08:39:00,
2013-09-03 04:44:00,72.0,70.8,29.83,SW,222,4.0,5.0,96,0.00,,---,0.00,VWS V14.01,2013-09-03 08:44:00,
2013-09-03 04:49:00,72.0,70.8,29.83,WSW,255,0.0,4.0,96,0.00,,---,0.00,VWS V14.01,2013-09-03 08:49:00,
2013-09-03 04:54:00,72.0,70.8,29.83,West,266,1.0,3.0,96,0.00,,---,0.00,VWS V14.01,2013-09-03 08:54:00,
2013-09-03 04:59:00,72.0,70.8,29.83,WSW,245,1.0,2.0,96,0.00,,---,0.00,VWS V14.01,2013-09-03 08:59:00,
2013-09-03 05:04:00,72.0,70.8,29.84,WSW,253,1.0,2.0,96,0.00,,---,0.00,VWS V14.01,2013-09-03 09:04:00,
2013-09-03 05:09:00,71.9,70.7,29.84,West,273,1.0,4.0,96,0.00,,---,0.00,VWS V14.01,2013-09-03 09:09:00,
2013-09-03 05:14:00,71.9,70.7,29.84,WSW,256,2.0,5.0,96,0.00,,---,0.00,VWS V14.01,2013-09-03 09:14:00,
2013-09-03 05:19:00,71.9,70.7,29.84,SSW,208,0.0,4.0,96,0.00,,---,0.00,VWS V14.01,2013-09-03 09:19:00,
2013-09-03 05:24:00,71.8,70.6,29.84,West,262,4.0,4.0,96,0.00,,---,0.00,VWS V14.01,2013-09-03 09:24:00,
2013-09-03 05:30:00,71.8,70.9,29.84,West,278,3.0,4.0,97,0.00,,---,0.00,VWS V14.01,2013-09-03 09:30:00,
2013-09-03 05:35:00,71.8,70.9,29.84,West,266,2.0,6.0,97,0.00,,---,0.00,VWS V14.01,2013-09-03 09:35:00,
2013-09-03 05:40:00,71.9,71.0,29.84,WSW,244,0.0,6.0,97,0.00,,---,0.00,VWS V14.01,2013-09-03 09:40:00,
2013-09-03 05:45:00,71.9,71.0,29.84,West,278,3.0,4.0,97,0.00,,---,0.00,VWS V14.01,2013-09-03 09:45:00,
2013-09-03 05:50:00,72.0,71.1,29.84,WSW,255,1.0,4.0,97,0.00,,---,0.00,VWS V14.01,2013-09-03 09:50:00,
2013-09-03 05:55:00,72.0,71.1,29.84,WSW,256,0.0,1.0,97,0.00,,---,0.00,VWS V14.01,2013-09-03 09:55:00,
2013-09-03 06:00:00,72.0,71.1,29.84,West,271,0.0,3.0,97,0.00,,---,0.00,VWS V14.01,2013-09-03 10:00:00,
2013-09-03 06:05:00,72.0,71.1,29.84,WSW,257,0.0,2.0,97,0.00,,---,0.00,VWS V14.01,2013-09-03 10:05:00,
2013-09-03 06:10:00,72.0,71.1,29.84,WSW,249,0.0,4.0,97,0.00,,---,0.00,VWS V14.01,2013-09-03 10:10:00,
2013-09-03 06:15:00,72.0,71.1,29.84,SW,215,0.0,2.0,97,0.00,,---,0.00,VWS V14.01,2013-09-03 10:15:00,
2013-09-03 06:20:00,72.0,71.1,29.84,SSW,212,1.0,3.0,97,0.00,,---,0.00,VWS V14.01,2013-09-03 10:20:00,
2013-09-03 06:25:00,72.0,71.1,29.83,SSW,203,0.0,3.0,97,0.00,,---,0.00,VWS V14.01,2013-09-03 10:25:00,
2013-09-03 06:30:00,71.9,71.0,29.84,SSW,211,2.0,6.0,97,0.00,,---,0.00,VWS V14.01,2013-09-03 10:30:00,
2013-09-03 06:35:00,71.8,70.9,29.84,SW,225,2.0,6.0,97,0.00,,---,0.00,VWS V14.01,2013-09-03 10:35:00,
2013-09-03 06:40:00,71.8,70.9,29.84,South,191,3.0,5.0,97,0.00,,---,0.00,VWS V14.01,2013-09-03 10:40:00,
2013-09-03 06:45:00,71.7,70.8,29.84,SW,217,3.0,6.0,97,0.00,,---,0.00,VWS V14.01,2013-09-03 10:45:00,
2013-09-03 06:50:00,71.7,70.8,29.85,SW,231,3.0,6.0,97,0.00,,---,0.00,VWS V14.01,2013-09-03 10:50:00,
2013-09-03 06:55:00,71.7,70.8,29.85,SW,235,2.0,4.0,97,0.00,,---,0.00,VWS V14.01,2013-09-03 10:55:00,
2013-09-03 07:00:00,71.7,70.8,29.86,WSW,248,2.0,5.0,97,0.00,,---,0.00,VWS V14.01,2013-09-03 11:00:00,
2013-09-03 07:05:00,71.7,70.8,29.86,SSW,205,1.0,5.0,97,0.00,,---,0.00,VWS V14.01,2013-09-03 11:05:00,
2013-09-03 07:10:00,71.7,70.8,29.86,SSW,211,2.0,4.0,97,0.00,,---,0.00,VWS V14.01,2013-09-03 11:10:00,
2013-09-03 07:15:00,71.7,70.8,29.86,SSW,205,2.0,7.0,97,0.00,,---,0.00,VWS V14.01,2013-09-03 11:15:00,
2013-09-03 07:20:00,71.7,70.8,29.86,SW,214,2.0,7.0,97,0.00,,---,0.00,VWS V14.01,2013-09-03 11:20:00,
2013-09-03 07:25:00,71.6,70.7,29.86,SW,235,4.0,7.0,97,0.00,,---,0.00,VWS V14.01,2013-09-03 11:25:00,
2013-09-03 07:30:00,71.6,70.7,29.86,SW,224,2.0,6.0,97,0.00,,---,0.00,VWS V14.01,2013-09-03 11:30:00,
2013-09-03 07:35:00,71.6,70.7,29.87,SW,225,2.0,6.0,97,0.00,,---,0.00,VWS V14.01,2013-09-03 11:35:00,
2013-09-03 07:40:00,71.6,70.7,29.86,SW,219,4.0,6.0,97,0.00,,---,0.00,VWS V14.01,2013-09-03 11:40:00,
2013-09-03 07:45:00,71.6,70.7,29.87,WSW,242,0.0,6.0,97,0.00,,---,0.00,VWS V14.01,2013-09-03 11:45:00,
2013-09-03 07:50:00,71.7,70.8,29.88,WSW,244,0.0,5.0,97,0.00,,---,0.00,VWS V14.01,2013-09-03 11:50:00,
2013-09-03 07:56:00,71.7,70.8,29.88,SW,224,2.0,4.0,97,0.00,,---,0.00,VWS V14.01,2013-09-03 11:56:00,
2013-09-03 08:01:00,71.7,70.8,29.88,WSW,245,4.0,5.0,97,0.00,,---,0.00,VWS V14.01,2013-09-03 12:01:00,
2013-09-03 08:06:00,71.7,70.8,29.88,West,264,3.0,4.0,97,0.00,,---,0.00,VWS V14.01,2013-09-03 12:06:00,
2013-09-03 08:11:00,71.8,70.9,29.88,West,270,2.0,6.0,97,0.00,,---,0.00,VWS V14.01,2013-09-03 12:11:00,
2013-09-03 08:16:00,71.8,70.9,29.88,WSW,243,0.0,3.0,97,0.00,,---,0.00,VWS V14.01,2013-09-03 12:16:00,
2013-09-03 08:21:00,71.9,71.0,29.88,SSW,211,2.0,3.0,97,0.00,,---,0.00,VWS V14.01,2013-09-03 12:21:00,
2013-09-03 08:26:00,72.0,71.1,29.88,SW,224,2.0,4.0,97,0.00,,---,0.00,VWS V14.01,2013-09-03 12:26:00,
2013-09-03 08:31:00,72.0,71.1,29.88,SSW,200,0.0,4.0,97,0.00,,---,0.00,VWS V14.01,2013-09-03 12:31:00,
2013-09-03 08:36:00,72.2,71.3,29.88,SSW,200,3.0,4.0,97,0.00,,---,0.00,VWS V14.01,2013-09-03 12:36:00,
2013-09-03 08:41:00,72.3,71.4,29.88,SW,225,0.0,5.0,97,0.00,,---,0.00,VWS V14.01,2013-09-03 12:41:00,
2013-09-03 08:46:00,72.3,71.4,29.88,SW,215,3.0,5.0,97,0.00,,---,0.00,VWS V14.01,2013-09-03 12:46:00,
2013-09-03 08:51:00,72.3,71.4,29.89,SW,217,6.0,7.0,97,0.00,,---,0.00,VWS V14.01,2013-09-03 12:51:00,
2013-09-03 20:45:00,72.4,71.5,29.88,WSW,242,0.0,7.0,97,0.00,,---,0.00,VWS V14.01,2013-09-04 00:45:00,
2013-09-03 20:50:00,78.9,69.9,29.91,North,1,0.0,0.0,74,0.00,,---,0.00,VWS V14.01,2013-09-04 00:50:00,
2013-09-03 20:55:00,79.1,69.7,29.91,North,9,0.0,1.0,73,0.00,,---,0.00,VWS V14.01,2013-09-04 00:55:00,
2013-09-03 21:00:00,79.4,69.6,29.92,North,7,0.0,0.0,72,0.00,,---,0.00,VWS V14.01,2013-09-04 01:00:00,
2013-09-03 21:05:00,79.6,69.4,29.92,North,7,0.0,1.0,71,0.00,,---,0.00,VWS V14.01,2013-09-04 01:05:00,
2013-09-03 21:11:00,79.7,69.5,29.92,North,8,0.0,0.0,71,0.00,,---,0.00,VWS V14.01,2013-09-04 01:11:00,
2013-09-03 21:16:00,79.8,69.6,29.92,North,8,0.0,1.0,71,0.00,,---,0.00,VWS V14.01,2013-09-04 01:16:00,
2013-09-03 21:21:00,79.7,69.5,29.93,North,7,0.0,0.0,71,0.00,,---,0.00,VWS V14.01,2013-09-04 01:21:00,
2013-09-03 21:26:00,79.5,69.7,29.93,North,8,0.0,0.0,72,0.00,,---,0.00,VWS V14.01,2013-09-04 01:26:00,
2013-09-03 21:31:00,79.3,69.9,29.93,North,7,0.0,0.0,73,0.00,,---,0.00,VWS V14.01,2013-09-04 01:31:00,
2013-09-03 21:36:00,79.0,69.6,29.93,North,7,0.0,0.0,73,0.00,,---,0.00,VWS V14.01,2013-09-04 01:36:00,
2013-09-03 21:41:00,78.7,69.7,29.94,North,7,0.0,1.0,74,0.00,,---,0.00,VWS V14.01,2013-09-04 01:41:00,
2013-09-03 21:46:00,78.3,69.7,29.94,North,6,0.0,1.0,75,0.00,,---,0.00,VWS V14.01,2013-09-04 01:46:00,
2013-09-03 21:51:00,77.8,70.0,29.94,North,6,0.0,0.0,77,0.00,,---,0.00,VWS V14.01,2013-09-04 01:51:00,
2013-09-03 21:56:00,77.1,70.1,29.94,North,6,0.0,0.0,79,0.00,,---,0.00,VWS V14.01,2013-09-04 01:56:00,
2013-09-03 22:01:00,76.4,70.1,29.94,North,6,0.0,0.0,81,0.00,,---,0.00,VWS V14.01,2013-09-04 02:01:00,
2013-09-03 22:06:00,75.9,69.7,29.94,North,6,0.0,0.0,81,0.00,,---,0.00,VWS V14.01,2013-09-04 02:06:00,
2013-09-03 22:11:00,75.5,70.0,29.94,North,6,0.0,0.0,83,0.00,,---,0.00,VWS V14.01,2013-09-04 02:11:00,
2013-09-03 22:16:00,74.9,69.7,29.94,North,6,0.0,0.0,84,0.00,,---,0.00,VWS V14.01,2013-09-04 02:16:00,
2013-09-03 22:21:00,74.4,69.9,29.94,North,6,0.0,0.0,86,0.00,,---,0.00,VWS V14.01,2013-09-04 02:21:00,
2013-09-03 22:26:00,74.4,70.3,29.94,North,6,0.0,0.0,87,0.00,,---,0.00,VWS V14.01,2013-09-04 02:26:00,
2013-09-03 22:31:00,74.4,70.3,29.94,North,6,0.0,0.0,87,0.00,,---,0.00,VWS V14.01,2013-09-04 02:31:00,
2013-09-03 22:36:00,74.5,70.7,29.94,North,6,0.0,1.0,88,0.00,,---,0.00,VWS V14.01,2013-09-04 02:36:00,
2013-09-03 22:41:00,74.5,70.7,29.94,North,6,0.0,0.0,88,0.00,,---,0.00,VWS V14.01,2013-09-04 02:41:00,
2013-09-03 22:46:00,74.4,70.9,29.95,North,6,0.0,0.0,89,0.00,,---,0.00,VWS V14.01,2013-09-04 02:46:00,
2013-09-03 22:51:00,74.4,71.3,29.95,North,6,0.0,1.0,90,0.00,,---,0.00,VWS V14.01,2013-09-04 02:51:00,
2013-09-03 22:56:00,74.5,71.7,29.95,North,6,0.0,1.0,91,0.00,,---,0.00,VWS V14.01,2013-09-04 02:56:00,
2013-09-03 23:01:00,74.5,71.4,29.95,North,6,0.0,1.0,90,0.00,,---,0.00,VWS V14.01,2013-09-04 03:01:00,
2013-09-03 23:06:00,74.3,70.8,29.95,North,354,0.0,0.0,89,0.00,,---,0.00,VWS V14.01,2013-09-04 03:06:00,
2013-09-03 23:11:00,74.3,70.5,29.95,North,354,0.0,1.0,88,0.00,,---,0.00,VWS V14.01,2013-09-04 03:11:00,
2013-09-03 23:16:00,74.2,70.4,29.95,North,354,0.0,1.0,88,0.00,,---,0.00,VWS V14.01,2013-09-04 03:16:00,
2013-09-03 23:21:00,74.2,70.4,29.95,North,354,0.0,0.0,88,0.00,,---,0.00,VWS V14.01,2013-09-04 03:21:00,
2013-09-03 23:26:00,73.8,70.0,29.96,SSW,211,2.0,2.0,88,0.00,,---,0.00,VWS V14.01,2013-09-04 03:26:00,
2013-09-03 23:31:00,72.7,69.6,29.96,SSW,200,3.0,4.0,90,0.00,,---,0.00,VWS V14.01,2013-09-04 03:31:00,
2013-09-03 23:36:00,72.2,69.8,29.96,SSW,210,2.0,3.0,92,0.00,,---,0.00,VWS V14.01,2013-09-04 03:36:00,
2013-09-03 23:41:00,72.3,70.5,29.96,SSW,203,1.0,3.0,94,0.00,,---,0.00,VWS V14.01,2013-09-04 03:41:00,
2013-09-03 23:46:00,72.7,70.2,29.96,SSW,203,0.0,1.0,92,0.00,,---,0.00,VWS V14.01,2013-09-04 03:46:00,
2013-09-03 23:51:00,73.6,70.2,29.96,SSW,203,0.0,0.0,89,0.00,,---,0.00,VWS V14.01,2013-09-04 03:51:00,
2013-09-03 23:56:00,74.0,70.6,29.96,SSW,203,0.0,0.0,89,0.00,,---,0.00,VWS V14.01,2013-09-04 03:56:00,